Terug naar catalogus

MIDAS 4

ActiefMilitairPO
NORAD 192·PAYLOAD·🇺🇸 United States

Gelanceerd Oct 21, 1961 vanaf Vandenberg Space Force Base

Loading…

Volgende Passages (komende 24 uur)

TLE

VersSource: Space-Track

Epoch: Sep 14, 2026, 08:38 UTC

1 00192U 61028A   26257.35989498 -.00000026  00000-0 -10272-1 0  9999
2 00192  95.8485 242.3732 0134275 240.2797 118.4635  8.67767974 55895

Volg MIDAS 4 in realtime met AllMySat

Download on the App Store